Location: Unspecified
(0.0000°N, 0.0000°E)
Time: 00:26:01
(UTC+00:00)

AQUARIUS - Visible Passes

Search period start: 21 October 2019 00:00
Search period end: 31 October 2019 00:00
Orbit: 650 x 653 km, 98.0° (Epoch: 20 October)

Date Brightness Start Highest point End Pass type
(mag) Time Alt. Az. Time Alt. Az. Time Alt. Az.
21 Oct 7.5 05:10:24 10° ENE 05:13:28 18° ESE 05:16:33 10° SE visible
21 Oct 7.7 19:01:26 10° SW 19:03:28 13° WSW 19:05:29 10° WNW visible
23 Oct 5.3 18:16:36 10° S 18:20:56 49° WSW 18:25:16 10° NNW visible
24 Oct 8.1 04:56:43 10° E 04:57:55 11° ESE 04:59:06 10° ESE visible
24 Oct 7.0 18:44:31 10° SSW 18:47:54 21° WSW 18:51:16 10° NW visible
26 Oct 4.3 18:00:52 10° S 18:05:22 84° W 18:09:50 10° NNW visible
27 Oct 6.1 18:28:16 10° SSW 18:32:20 34° WSW 18:36:23 10° NW visible
28 Oct 7.6 05:06:33 10° ENE 05:09:17 16° ESE 05:12:02 10° SE visible
28 Oct 7.5 18:56:46 10° SW 18:59:17 15° WSW 19:01:46 10° WNW visible
30 Oct 5.0 18:12:20 10° S 18:16:45 57° WSW 18:21:08 10° NNW visible
